Time,TemperatureF,DewpointF,PressureIn,WindDirection,WindDirectionDegrees,WindSpeedMPH,WindSpeedGustMPH,Humidity,HourlyPrecipIn,Conditions,Clouds,dailyrainin,SoftwareType,DateUTC
2013-06-22 10:02:00,82.0,70.0,30.05,West,280,6.0,12.0,67,0.00,,,0.00,,2013-06-22 15:02:00,
2013-06-22 10:12:00,82.0,71.0,30.06,West,274,7.0,12.0,69,0.00,,,0.00,,2013-06-22 15:12:00,
2013-06-22 10:34:00,83.0,72.0,30.05,West,275,5.0,12.0,69,0.00,,,0.00,,2013-06-22 15:34:00,
2013-06-22 10:43:00,83.0,72.0,30.05,West,275,5.0,12.0,69,0.00,,,0.00,,2013-06-22 15:43:00,
2013-06-22 10:53:00,83.0,72.0,30.05,West,275,5.0,12.0,69,0.00,,,0.00,,2013-06-22 15:53:00,
2013-06-22 11:02:00,83.0,69.0,30.05,WSW,258,9.0,12.0,63,0.00,,,0.00,,2013-06-22 16:02:00,
2013-06-22 11:12:00,84.0,70.0,30.05,West,281,8.0,12.0,64,0.00,,,0.00,,2013-06-22 16:12:00,
2013-06-22 11:22:00,84.0,70.0,30.05,West,281,8.0,12.0,64,0.00,,,0.00,,2013-06-22 16:22:00,
2013-06-22 11:34:00,84.0,70.0,30.05,West,271,2.0,11.0,63,0.00,,,0.00,,2013-06-22 16:34:00,
2013-06-22 11:43:00,84.0,71.0,30.05,West,280,8.0,11.0,66,0.00,,,0.00,,2013-06-22 16:43:00,
2013-06-22 11:52:00,84.0,71.0,30.05,West,280,8.0,11.0,66,0.00,,,0.00,,2013-06-22 16:52:00,
2013-06-22 12:02:00,84.0,69.0,30.04,West,261,3.0,13.0,60,0.00,,,0.00,,2013-06-22 17:02:00,
2013-06-22 12:11:00,85.0,73.0,30.04,West,267,7.0,13.0,67,0.00,,,0.00,,2013-06-22 17:11:00,
2013-06-22 12:22:00,85.0,73.0,30.04,West,267,7.0,13.0,67,0.00,,,0.00,,2013-06-22 17:22:00,
2013-06-22 12:34:00,85.0,70.0,30.04,WSW,250,3.0,13.0,60,0.00,,,0.00,,2013-06-22 17:34:00,
2013-06-22 12:43:00,86.0,72.0,30.03,SSW,195,0.0,13.0,63,0.00,,,0.00,,2013-06-22 17:43:00,
2013-06-22 12:52:00,86.0,72.0,30.03,SSW,195,0.0,13.0,63,0.00,,,0.00,,2013-06-22 17:52:00,
2013-06-22 13:02:00,85.0,71.0,30.03,West,275,7.0,12.0,63,0.00,,,0.00,,2013-06-22 18:02:00,
2013-06-22 13:12:00,86.0,68.0,30.03,South,179,3.0,12.0,56,0.00,,,0.00,,2013-06-22 18:12:00,
2013-06-22 13:23:00,86.0,68.0,30.03,South,179,3.0,12.0,56,0.00,,,0.00,,2013-06-22 18:23:00,
2013-06-22 13:34:00,86.0,70.0,30.03,West,261,2.0,10.0,59,0.00,,,0.00,,2013-06-22 18:34:00,
2013-06-22 13:43:00,86.0,71.0,30.03,West,267,2.0,10.0,62,0.00,,,0.00,,2013-06-22 18:43:00,
2013-06-22 13:52:00,86.0,71.0,30.03,West,267,2.0,10.0,62,0.00,,,0.00,,2013-06-22 18:52:00,
2013-06-22 14:01:00,86.0,72.0,30.02,WSW,257,6.0,13.0,63,0.00,,,0.00,,2013-06-22 19:01:00,
2013-06-22 14:11:00,86.0,69.0,30.01,WSW,256,1.0,13.0,57,0.00,,,0.00,,2013-06-22 19:11:00,
2013-06-22 14:22:00,86.0,69.0,30.01,WSW,256,1.0,13.0,57,0.00,,,0.00,,2013-06-22 19:22:00,
2013-06-22 14:33:00,86.0,68.0,30.01,West,270,2.0,12.0,55,0.00,,,0.00,,2013-06-22 19:33:00,
2013-06-22 14:43:00,86.0,69.0,30.00,WSW,247,6.0,12.0,57,0.00,,,0.00,,2013-06-22 19:43:00,
2013-06-22 14:52:00,86.0,69.0,30.00,WSW,247,6.0,12.0,57,0.00,,,0.00,,2013-06-22 19:52:00,
2013-06-22 15:02:00,86.0,68.0,29.99,WSW,253,5.0,12.0,56,0.00,,,0.00,,2013-06-22 20:02:00,
2013-06-22 15:11:00,86.0,69.0,29.98,WSW,247,3.0,12.0,58,0.00,,,0.00,,2013-06-22 20:11:00,
2013-06-22 15:22:00,86.0,69.0,29.98,WSW,247,3.0,12.0,58,0.00,,,0.00,,2013-06-22 20:22:00,
2013-06-22 15:33:00,86.0,70.0,29.97,WSW,244,7.0,12.0,60,0.00,,,0.00,,2013-06-22 20:33:00,
2013-06-22 15:43:00,84.0,70.0,29.96,SSW,213,2.0,12.0,62,0.00,,,0.00,,2013-06-22 20:43:00,
2013-06-22 15:53:00,84.0,70.0,29.96,SSW,213,2.0,12.0,62,0.00,,,0.00,,2013-06-22 20:53:00,
2013-06-22 16:01:00,86.0,71.0,29.96,SSW,212,11.0,13.0,61,0.00,,,0.00,,2013-06-22 21:01:00,
2013-06-22 16:11:00,86.0,69.0,29.95,SSW,206,1.0,13.0,58,0.00,,,0.00,,2013-06-22 21:11:00,
2013-06-22 16:22:00,86.0,69.0,29.95,SSW,206,1.0,13.0,58,0.00,,,0.00,,2013-06-22 21:22:00,
2013-06-22 16:34:00,85.0,69.0,29.95,SSW,200,8.0,12.0,58,0.00,,,0.00,,2013-06-22 21:34:00,
2013-06-22 16:43:00,85.0,70.0,29.95,SW,216,5.0,12.0,61,0.00,,,0.00,,2013-06-22 21:43:00,
2013-06-22 16:53:00,85.0,70.0,29.95,SW,216,5.0,12.0,61,0.00,,,0.00,,2013-06-22 21:53:00,
2013-06-22 17:02:00,85.0,69.0,29.95,SW,226,4.0,14.0,58,0.00,,,0.00,,2013-06-22 22:02:00,
2013-06-22 17:12:00,86.0,70.0,29.95,WSW,237,1.0,14.0,59,0.00,,,0.00,,2013-06-22 22:12:00,
2013-06-22 17:23:00,86.0,70.0,29.95,WSW,237,1.0,14.0,59,0.00,,,0.00,,2013-06-22 22:23:00,
2013-06-22 17:33:00,86.0,68.0,29.94,WSW,250,0.0,11.0,56,0.00,,,0.00,,2013-06-22 22:33:00,
2013-06-22 17:43:00,86.0,70.0,29.94,WSW,244,0.0,11.0,60,0.00,,,0.00,,2013-06-22 22:43:00,
2013-06-22 17:52:00,86.0,70.0,29.94,WSW,244,0.0,11.0,60,0.00,,,0.00,,2013-06-22 22:52:00,
2013-06-22 18:01:00,86.0,69.0,29.94,WSW,246,0.0,6.0,58,0.00,,,0.00,,2013-06-22 23:01:00,
2013-06-22 18:11:00,86.0,68.0,29.94,WSW,237,5.0,6.0,56,0.00,,,0.00,,2013-06-22 23:11:00,
2013-06-22 18:22:00,86.0,68.0,29.94,WSW,237,5.0,6.0,56,0.00,,,0.00,,2013-06-22 23:22:00,
2013-06-22 18:34:00,87.0,72.0,29.95,WSW,237,1.0,6.0,61,0.00,,,0.00,,2013-06-22 23:34:00,
2013-06-22 18:43:00,86.0,69.0,29.94,WSW,241,0.0,6.0,58,0.00,,,0.00,,2013-06-22 23:43:00,
2013-06-22 18:52:00,86.0,69.0,29.94,WSW,241,0.0,6.0,58,0.00,,,0.00,,2013-06-22 23:52:00,
2013-06-22 19:01:00,86.0,71.0,29.94,WSW,237,0.0,5.0,62,0.00,,,0.00,,2013-06-23 00:01:00,
2013-06-22 19:11:00,84.0,70.0,29.95,SW,232,1.0,5.0,64,0.00,,,0.00,,2013-06-23 00:11:00,
2013-06-22 19:22:00,84.0,70.0,29.95,SW,232,1.0,5.0,64,0.00,,,0.00,,2013-06-23 00:22:00,
2013-06-22 19:33:00,84.0,71.0,29.95,West,280,0.0,2.0,65,0.00,,,0.00,,2013-06-23 00:33:00,
2013-06-22 19:42:00,84.0,71.0,29.95,West,280,0.0,2.0,65,0.00,,,0.00,,2013-06-23 00:42:00,
2013-06-22 19:53:00,84.0,71.0,29.95,West,280,0.0,2.0,65,0.00,,,0.00,,2013-06-23 00:53:00,
2013-06-22 20:01:00,84.0,71.0,29.95,West,280,0.0,2.0,65,0.00,,,0.00,,2013-06-23 01:01:00,
2013-06-22 20:11:00,80.0,69.0,29.95,West,264,0.0,3.0,70,0.00,,,0.00,,2013-06-23 01:11:00,
2013-06-22 20:22:00,80.0,69.0,29.95,West,264,0.0,3.0,70,0.00,,,0.00,,2013-06-23 01:22:00,
2013-06-22 20:32:00,80.0,69.0,29.95,West,264,0.0,3.0,70,0.00,,,0.00,,2013-06-23 01:32:00,
2013-06-22 20:42:00,80.0,69.0,29.95,West,264,0.0,3.0,70,0.00,,,0.00,,2013-06-23 01:42:00,
2013-06-22 20:52:00,78.0,70.0,29.96,West,263,0.0,0.0,77,0.00,,,0.00,,2013-06-23 01:52:00,
2013-06-22 21:01:00,78.0,70.0,29.96,West,263,0.0,0.0,77,0.00,,,0.00,,2013-06-23 02:01:00,
2013-06-22 21:11:00,78.0,70.0,29.96,West,263,0.0,0.0,77,0.00,,,0.00,,2013-06-23 02:11:00,
2013-06-22 21:21:00,78.0,70.0,29.96,West,263,0.0,0.0,77,0.00,,,0.00,,2013-06-23 02:21:00,
2013-06-22 21:31:00,78.0,70.0,29.96,West,263,0.0,0.0,77,0.00,,,0.00,,2013-06-23 02:31:00,
2013-06-22 23:22:00,74.0,71.0,29.98,NNW,346,0.0,7.0,89,0.00,,,0.00,,2013-06-23 04:22:00,
2013-06-22 23:42:00,74.0,71.0,29.98,NNW,346,0.0,7.0,89,0.00,,,0.00,,2013-06-23 04:42:00,
2013-06-22 23:52:00,74.0,71.0,29.98,NNW,346,0.0,7.0,89,0.00,,,0.00,,2013-06-23 04:52:00,